TimeEST,TemperatureF,Dew PointF,Humidity,Sea Level PressureIn,VisibilityMPH,Wind Direction,Wind SpeedMPH,Gust SpeedMPH,PrecipitationIn,Events,Conditions,WindDirDegrees,DateUTC
12:15 AM,57.2,33.8,41,30.22,10.0,SSE,6.9,-,N/A,,Clear,150,2012-11-12 05:15:00
12:35 AM,57.2,33.8,41,30.22,10.0,SSE,5.8,-,N/A,,Clear,160,2012-11-12 05:35:00
12:55 AM,57.2,33.8,41,30.22,10.0,SSE,9.2,-,N/A,,Clear,160,2012-11-12 05:55:00
1:15 AM,59.0,35.6,42,30.22,10.0,SSE,10.4,-,N/A,,Clear,160,2012-11-12 06:15:00
1:55 AM,59.0,35.6,42,30.22,10.0,South,10.4,-,N/A,,Clear,170,2012-11-12 06:55:00
2:15 AM,59.0,35.6,42,30.22,10.0,South,8.1,16.1,N/A,,Clear,170,2012-11-12 07:15:00
2:35 AM,59.0,37.4,45,30.23,10.0,South,9.2,-,N/A,,Clear,170,2012-11-12 07:35:00
2:55 AM,59.0,37.4,45,30.22,10.0,South,9.2,-,N/A,,Clear,180,2012-11-12 07:55:00
3:15 AM,59.0,37.4,45,30.22,10.0,South,10.4,-,N/A,,Clear,170,2012-11-12 08:15:00
3:35 AM,57.2,37.4,48,30.22,10.0,South,9.2,-,N/A,,Clear,180,2012-11-12 08:35:00
3:55 AM,57.2,39.2,51,30.22,10.0,South,8.1,-,N/A,,Clear,170,2012-11-12 08:55:00
4:15 AM,57.2,39.2,51,30.22,10.0,South,8.1,-,N/A,,Clear,170,2012-11-12 09:15:00
4:35 AM,57.2,39.2,51,30.22,10.0,SSE,8.1,-,N/A,,Clear,160,2012-11-12 09:35:00
4:55 AM,57.2,39.2,51,30.21,10.0,SSE,5.8,-,N/A,,Clear,160,2012-11-12 09:55:00
5:15 AM,57.2,39.2,51,30.22,10.0,SSE,6.9,-,N/A,,Clear,150,2012-11-12 10:15:00
5:35 AM,57.2,39.2,51,30.21,10.0,SE,5.8,-,N/A,,Clear,140,2012-11-12 10:35:00
5:55 AM,55.4,39.2,54,30.20,10.0,SSE,5.8,-,N/A,,Clear,150,2012-11-12 10:55:00
6:15 AM,55.4,39.2,54,30.20,10.0,SSE,8.1,-,N/A,,Clear,150,2012-11-12 11:15:00
6:35 AM,55.4,39.2,54,30.19,10.0,SSE,6.9,-,N/A,,Clear,150,2012-11-12 11:35:00
6:55 AM,55.4,41.0,58,30.20,10.0,SSE,4.6,-,N/A,,Clear,150,2012-11-12 11:55:00
7:15 AM,55.4,41.0,58,30.20,10.0,SSE,5.8,-,N/A,,Clear,150,2012-11-12 12:15:00
7:35 AM,55.4,42.8,63,30.19,10.0,SSE,8.1,-,N/A,,Clear,150,2012-11-12 12:35:00
7:55 AM,55.4,42.8,63,30.20,10.0,SSE,5.8,-,N/A,,Clear,150,2012-11-12 12:55:00
8:15 AM,57.2,42.8,59,30.20,10.0,SE,6.9,-,N/A,,Clear,140,2012-11-12 13:15:00
8:35 AM,57.2,42.8,59,30.19,10.0,SSE,9.2,-,N/A,,Clear,150,2012-11-12 13:35:00
8:55 AM,59.0,42.8,55,30.18,10.0,SSE,6.9,-,N/A,,Clear,150,2012-11-12 13:55:00
9:15 AM,60.8,44.6,55,30.18,10.0,SSE,9.2,-,N/A,,Clear,160,2012-11-12 14:15:00
9:35 AM,62.6,46.4,55,30.17,10.0,SSE,16.1,21.9,N/A,,Clear,160,2012-11-12 14:35:00
9:55 AM,64.4,46.4,52,30.17,10.0,South,16.1,20.7,N/A,,Clear,180,2012-11-12 14:55:00
10:15 AM,66.2,46.4,49,30.17,10.0,South,17.3,25.3,N/A,,Clear,170,2012-11-12 15:15:00
10:35 AM,66.2,46.4,49,30.16,10.0,South,21.9,29.9,N/A,,Clear,180,2012-11-12 15:35:00
10:55 AM,64.4,46.4,52,30.15,10.0,South,19.6,27.6,N/A,,Clear,180,2012-11-12 15:55:00
11:15 AM,66.2,46.4,49,30.14,10.0,South,15.0,28.8,N/A,,Clear,170,2012-11-12 16:15:00
11:35 AM,66.2,48.2,52,30.13,10.0,South,16.1,23.0,N/A,,Clear,180,2012-11-12 16:35:00
11:55 AM,66.2,46.4,49,30.11,10.0,South,15.0,28.8,N/A,,Clear,180,2012-11-12 16:55:00
12:15 PM,66.2,46.4,49,30.09,10.0,South,15.0,25.3,N/A,,Clear,170,2012-11-12 17:15:00
12:35 PM,68.0,46.4,46,30.08,10.0,South,17.3,25.3,N/A,,Partly Cloudy,190,2012-11-12 17:35:00
12:55 PM,68.0,46.4,46,30.07,10.0,South,17.3,31.1,N/A,,Scattered Clouds,180,2012-11-12 17:55:00
1:15 PM,68.0,46.4,46,30.05,10.0,South,18.4,25.3,N/A,,Mostly Cloudy,180,2012-11-12 18:15:00
1:35 PM,68.0,46.4,46,30.05,10.0,South,16.1,28.8,N/A,,Mostly Cloudy,170,2012-11-12 18:35:00
1:55 PM,66.2,46.4,49,30.03,10.0,South,13.8,21.9,N/A,,Overcast,180,2012-11-12 18:55:00
2:15 PM,66.2,46.4,49,30.02,10.0,South,11.5,20.7,N/A,,Overcast,180,2012-11-12 19:15:00
2:35 PM,68.0,46.4,46,30.00,10.0,South,8.1,18.4,N/A,,Mostly Cloudy,180,2012-11-12 19:35:00
2:55 PM,68.0,46.4,46,29.99,10.0,SSE,11.5,17.3,N/A,,Overcast,160,2012-11-12 19:55:00
3:15 PM,68.0,46.4,46,29.99,10.0,South,18.4,24.2,N/A,,Overcast,180,2012-11-12 20:15:00
3:55 PM,68.0,44.6,43,29.99,10.0,South,15.0,23.0,N/A,,Overcast,180,2012-11-12 20:55:00
4:15 PM,66.2,46.4,49,29.98,10.0,SSW,21.9,29.9,N/A,,Overcast,200,2012-11-12 21:15:00
4:35 PM,66.2,48.2,52,30.03,10.0,West,19.6,27.6,N/A,,Overcast,270,2012-11-12 21:35:00
4:55 PM,53.6,48.2,82,30.06,6.0,West,12.7,21.9,0.01,,Overcast,280,2012-11-12 21:55:00
5:35 PM,50.0,46.4,87,30.08,5.0,WNW,13.8,19.6,0.02,,Overcast,290,2012-11-12 22:35:00
5:55 PM,48.2,44.6,87,30.11,4.0,West,15.0,21.9,0.05,,Overcast,270,2012-11-12 22:55:00
6:15 PM,46.4,44.6,93,30.13,7.0,WNW,11.5,26.5,0.06,,Overcast,290,2012-11-12 23:15:00
6:35 PM,44.6,41.0,87,30.15,6.0,WNW,15.0,26.5,0.09,,Overcast,290,2012-11-12 23:35:00
6:55 PM,44.6,39.2,81,30.18,10.0,West,10.4,23.0,0.12,,Overcast,280,2012-11-12 23:55:00
7:15 PM,42.8,39.2,87,30.20,9.0,West,15.0,20.7,0.02,,Overcast,270,2012-11-13 00:15:00
7:35 PM,42.8,37.4,81,30.21,7.0,West,10.4,19.6,0.04,,Mostly Cloudy,270,2012-11-13 00:35:00
7:55 PM,42.8,37.4,81,30.23,9.0,West,12.7,17.3,0.06,,Overcast,260,2012-11-13 00:55:00
8:15 PM,41.0,37.4,87,30.23,9.0,West,12.7,20.7,N/A,,Overcast,270,2012-11-13 01:15:00
8:35 PM,41.0,35.6,81,30.25,7.0,West,12.7,16.1,0.01,,Mostly Cloudy,260,2012-11-13 01:35:00
8:55 PM,39.2,35.6,87,30.26,4.0,West,6.9,19.6,0.04,,Overcast,280,2012-11-13 01:55:00
9:15 PM,39.2,35.6,87,30.27,9.0,SW,8.1,16.1,0.01,,Overcast,230,2012-11-13 02:15:00
9:35 PM,37.4,33.8,87,30.29,10.0,WSW,5.8,-,0.03,,Overcast,240,2012-11-13 02:35:00
9:55 PM,37.4,33.8,87,30.29,10.0,SW,6.9,-,0.03,,Overcast,230,2012-11-13 02:55:00
10:15 PM,37.4,33.8,87,30.29,10.0,SW,9.2,-,N/A,,Overcast,230,2012-11-13 03:15:00
10:35 PM,37.4,33.8,87,30.30,10.0,SW,8.1,-,N/A,,Mostly Cloudy,220,2012-11-13 03:35:00
10:55 PM,37.4,33.8,87,30.29,10.0,WSW,6.9,-,N/A,,Overcast,240,2012-11-13 03:55:00
11:15 PM,37.4,33.8,87,30.31,10.0,WSW,8.1,-,N/A,,Mostly Cloudy,240,2012-11-13 04:15:00
11:35 PM,37.4,33.8,87,30.32,10.0,SW,13.8,17.3,N/A,,Mostly Cloudy,230,2012-11-13 04:35:00
11:55 PM,37.4,33.8,87,30.31,10.0,SW,9.2,-,N/A,,Overcast,230,2012-11-13 04:55:00